Simultaneous Nadir Overpasses (SNOs) Predictions

Prediction of SNOs between AQUA and GOES-15 Satellite Orbit:

Table of predicted SNOs for the next 14.0 days since TLE Epoch: 3/15/2019
Index Date Time (AQUA) AQUA Lat,Lon GOES-15 Lat,Lon Distance(km) Time Diff (sec)
1 03/17/2019 22:04:32 0.20,-127.18 -0.03,-128.32 128.77 80
2 03/18/2019 10:25:48 0.85,-132.35 0.03,-128.36 453.47 80
3 03/19/2019 21:52:22 0.84,-124.23 -0.03,-128.29 462.13 80
4 03/20/2019 10:13:38 0.28,-129.39 0.03,-128.33 120.17 54
5 03/22/2019 10:01:28 -0.36,-126.44 0.03,-128.31 212.97 80
6 03/22/2019 22:22:51 -0.74,-131.63 -0.03,-128.26 382.66 80
7 03/24/2019 22:10:40 -0.15,-128.67 -0.03,-128.23 50.02 80
8 03/26/2019 21:58:31 0.51,-125.72 -0.03,-128.20 282.33 80
9 03/27/2019 10:19:46 0.62,-130.87 0.03,-128.24 300.63 80
10 03/29/2019 10:07:36 -0.03,-127.93 0.04,-128.20 31.28 80




NCC Satellite Simultaneous Nadir Overpasses (SNOs) Prediction Service
